Regional Weather Roundup
Issued by NWS Grand Forks, ND

Home | Current Version | Previous Version | Graphics & Text | Print | Product List | Glossary On
Versions: 1 2 3 4 5 6 7 8 9 10 11 12 13 14 15 16 17 18 19 20 21 22 23 24 25 26 27 28 29 30 31 32 33 34 35 36 37 38 39 40 41 42 43 44 45 46 47 48 49 50
000
ASUS43 KFGF 160310
RWRFGF
PRAIRIE TO PINES  WEATHER ROUNDUP
NATIONAL WEATHER SERVICE EASTERN NORTH DAKOTA/GRAND FORKS ND
1000 PM CDT MON SEP 15 2014

 **SATELLITE DATA USED TO AUGMENT SKY COVER AT AUTOMATED STATIONS**
 *****  WEATHER ACROSS EASTERN NORTH DAKOTA  *****

CITY           SKY/WX    TMP DP  RH WIND       PRES   REMARKS
GRAND FORKS    CLEAR     49  41  74 SW8       30.08S
GRAND FRKS AFB CLEAR     46  42  86 SW7       30.09S
GRAND FRKS NWS   N/A     50 N/A N/A W2          N/A
DEVILS LAKE    CLEAR     46  37  71 CALM      30.08S
FARGO          CLEAR     51  39  63 S9        30.13S
WAHPETON ARPT  CLEAR     45  34  65 S7        30.17S
$$

 ***** WEATHER ACROSS CENTRAL AND WESTERN NORTH DAKOTA  *****

CITY           SKY/WX    TMP DP  RH WIND       PRES   REMARKS
BISMARCK       CLEAR     49  38  65 SE3       30.13R
MINOT          CLEAR     50  37  61 SE5       30.08R
JAMESTOWN      CLEAR     50  39  66 SW7       30.13S
MINOT AFB      CLEAR     47  38  72 SW8       30.07R
GARRISON         N/A     48  42  80 CALM      30.09S
WILLISTON      CLEAR     44  35  70 CALM      30.06S
DICKINSON      CLEAR     46  38  73 S9        30.08F
HETTINGER      CLEAR     50  38  63 SE7       30.12S
$$

 *****  OTHER AIRPORT OBSERVATIONS IN OUR AREA  *****

CITY           SKY/WX    TMP DP  RH WIND       PRES   REMARKS
WALHALLA         N/A     50  37  62 S5        30.04F
GRAFTON AIRPOR FAIR      48  39  71 SW8       30.06F
VALLEY CITY AR FAIR      46  41  81 SW8       30.14R
CANDO          FAIR      45  37  76 SW8       30.09S
CAVALIER APRT  FAIR      48  39  71 SW6       30.05S
GWINNER        CLEAR     46  39  76 S7        30.18S
SHEYENNE NWR     N/A     46  39  77 SW5       29.95
ROLLA          FAIR      46  39  76 SW8       30.08S
 ***** THE ABOVE OBSERVATIONS ARE NON NWS ARE NOT QUALITY
       CONTROLLED AND MAY MIS-REPORT RAIN FOR SNOW...
$$

  *****  WEATHER ACROSS NORTHERN MINNESOTA  *****

CITY           SKY/WX    TMP DP  RH WIND       PRES   REMARKS
FLAG ISLAND    PTCLDY    52  43  71 SW10      30.02S
WARROAD        PTCLDY    48  41  76 CALM      30.05S
ROSEAU         CLEAR     46  39  76 SW8       30.04F
HALLOCK        CLEAR     46  39  76 SW3       30.05S
THF RVR FALLS  CLEAR     50  39  66 S9        30.08S
BAUDETTE       MOCLDY    47  39  74 S3        30.05F
WASKISH        MOCLDY    48  43  81 CALM      30.08F
CROOKSTON      CLEAR     48  43  81 SW7       30.10S
STEPHEN NDAWN    N/A     46  39  76 SW5         N/A
GREENBUSH NDAW   N/A     46  41  81 SW5         N/A
$$
  *****  WEATHER ACROSS CENTRAL AND WEST MINNESOTA  *****

CITY           SKY/WX    TMP DP  RH WIND       PRES   REMARKS
FOSSTON        CLEAR     46  37  71 S9        30.12S
BEMIDJI        CLEAR     47  38  71 SW5       30.12S
PARK RAPIDS    CLEAR     46  38  73 SW8       30.15S
ELBOW LAKE     FAIR      45  37  72 S7        30.18F
WADENA         CLEAR     43  36  75 SW7       30.17S
DETROIT LAKES  CLEAR     50  41  71 SW8       30.16S
MOORHEAD       CLEAR     52  43  71 SW8       30.15S
FERGUS FALLS   CLEAR     46  36  66 S6        30.18S
MORRIS MN      CLEAR     45  39  81 S5        30.19S
STAPLES        CLEAR     43  37  81 S3        30.17F
$$
  *****  WEATHER ELSEWHERE ACROSS MINNESOTA  *****

CITY           SKY/WX    TMP DP  RH WIND       PRES   REMARKS
DULUTH         CLEAR     43  35  73 W6        30.15S
INTRNTL FALLS  MOCLDY    36  35  96 S3        30.07F
ELY            CLEAR     41  37  87 SW5       30.12R
CLOQUET        CLEAR     45  36  70 SW5       30.16S
WHEATON        CLEAR     46  36  66 S8        30.21S
BRAINERD       CLEAR     39  38  96 S3        30.18S
HIBBING        CLEAR     37  34  89 CALM      30.13F
ALEXANDRIA     CLEAR     45  39  79 SW6       30.21R
SAINT CLOUD    CLEAR     46  41  82 CALM      30.20S
MINNEAPOLIS    CLEAR     51  39  63 NW3       30.22R
$$

  *****  WEATHER ACROSS SOUTH DAKOTA  *****

CITY           SKY/WX    TMP DP  RH WIND       PRES   REMARKS
SIOUX FALLS    CLEAR     48  44  86 CALM      30.24R
BROOKINGS      NOT AVBL
WATERTOWN      CLEAR     46  39  76 S3        30.22R
HURON          CLEAR     49  37  63 S3        30.22R
SISSETON         N/A     43  39  86 SW6       30.18S
ABERDEEN       CLEAR     43  38  82 S7        30.19S
MITCHELL       CLEAR     51  45  79 S5        30.24R
PIERRE         CLEAR     44  38  79 E5        30.17R
MOBRIDGE       CLEAR     48  42  80 SE7       30.14S
RAPID CITY     CLEAR     53  43  68 S5        30.12S
$$

  *****  SOME WEATHER IN NEARBY STATES *****

CITY           SKY/WX    TMP DP  RH WIND       PRES   REMARKS
GLASGOW MT     CLEAR     53  37  54 E10       30.04S
GREAT FALLS MT CLEAR     59  40  49 E6        30.02R
CHEYENNE WY    CLEAR     56  46  69 S12       30.28R
SCOTTSBLUFF NE CLEAR     56  47  71 E12       30.17S
OMAHA NE       CLEAR     53  49  86 CALM      30.27R
DES MOINES IA  PTCLDY    53  46  77 N6        30.24S
DAVENPORT IA   CLEAR     48  45  89 NW5       30.21R
CHICAGO IL     PTCLDY    54  48  80 NW8       30.16R
EAU CLAIRE WI  CLEAR     43  39  86 CALM      30.20S
LA CROSSE WI   CLEAR     49  46  90 CALM      30.22R
$$

  *****  SOME NATIONAL WEATHER *****

CITY           SKY/WX    TMP DP  RH WIND       PRES   REMARKS
LA GUARDIA NY  MOCLDY    65  51  60 SW7       30.09S
RALEIGH NC     CLOUDY    69  65  86 S3        30.13F
ATLANTA GA     MOCLDY    73  71  93 SE3       30.15R
NEW ORLEANS LA MOCLDY    79  76  90 SW3       30.08F
OKLAHOMA CITY  CLOUDY    75  68  78 S7        30.14R
ALBUQUERQUE NM CLOUDY    72  57  59 E13       30.28R
SALT LAKE CITY PTCLDY    75  42  30 SE5       30.06R
LOS ANGELES CA CLEAR     79  62  56 W7        29.73R
BOISE ID       PTCLDY    77  36  22 S5        29.92R
SEATTLE WA     MOCLDY    72  45  37 NW3       29.81R
$$

*** WEATHER ACROSS MANITOBA...SASKATCHEWAN AND ONTARIO ***
                ***ONTARIO***

CITY           SKY/WX    TMP DP  RH WIND       PRES   REMARKS
GERALDTON      PTCLDY    43  39  87 SW5       29.95F
THUNDER BAY    CLEAR     41  39  93 W6        30.06S
SIOUX LOOKOUT  CLEAR     50  39  66 W8        29.97F
TORONTO        LGT RAIN  55  54  94 W5        30.05F
BIG TROUT LK   RAIN      41  37  87 NW12G17   29.79S
PICKLE LAKE    NOT AVBL
DRYDEN         CLEAR     50  39  66 SW9       30.00F
KENORA         PTCLDY    50  36  57 SW9       30.02S
$$
                *** MANITOBA***

CITY           SKY/WX    TMP DP  RH WIND       PRES   REMARKS
BRANDON        MOCLDY    52  45  76 W7        30.00F
DAUPHIN        CLOUDY    59  45  58 W12       29.93S
ISLAND LAKE    LGT RAIN  41  41 100 N6        29.92R
PILOT MOUND      N/A     46  41  81 SW7         N/A
THE PAS        PTCLDY    52  43  71 NE10G17   29.94R
THOMPSON       PTCLDY    30  27  86 N6        30.05R WCI  24
WINNIPEG       PTCLDY    54  37  54 SW10      30.00F
LYNN LAKE      CLEAR     28  23  80 MISG      30.08R
CHURCHILL      FLURRIES  34  30  86 N18       30.00S WCI  23
GILLAM         PTCLDY    34  27  75 N14       30.02R WCI  24
$$
                ***SASKATCHEWAN***

CITY           SKY/WX    TMP DP  RH WIND       PRES   REMARKS
ESTEVAN        CLEAR     48  36  61 S7        30.05S
KINDERSLEY     CLEAR     54  39  58 SE8       29.97S
LLOYDMINSTER   CLEAR     59  43  55 NE6       29.94R
PRINCE ALBERT  PTCLDY    52  48  87 CALM      29.94R
REGINA         CLEAR     52  41  66 SW3       30.02R
YORKTON        CLOUDY    59  43  55 SW8       29.97R
N. BATTLEFORD  CLEAR     52  43  71 S3        29.95S
LA RONGE       CLOUDY    54  46  76 NE15G21   29.95R
SASKATOON      CLEAR     55  43  62 SW6       29.96S
SWIFT CURRENT  CLEAR     52  37  58 SE9       30.01R
$$
NOTE: THESE ARE AUTOMATED STATIONS WITH LIMITED QUALITY CONTROL
      "FAIR" INDICATES FEW OR NO CLOUDS BELOW 12,000 FEET WITH NO
      SIGNIFICANT WEATHER AND/OR OBSTRUCTIONS TO VISIBILITY.
      SKY/WX - SKY CONDITION AND SIGNIFICANT WEATHER.
      TMP - AIR TEMPERATURE.    DP   - DEWPOINT TEMPERATURE.
      RH  - RELATIVE HUMIDITY.  PRES - PRESSURE.
      HX  - HEAT INDEX.         WCI  - WIND CHILL INDEX.
$


USA.gov is the U.S. government's official web portal to all federal, state and local government web resources and services.